User: anonymous   Login
Location: Albany
(35.0170°S, 117.8920°E)
Time: 22:22:12
(UTC+08:00)
Language:

Transit 2A - Orbit

View from above orbital plane
View from above orbital plane
View from above satellite
View from above satellite

Ground track
Ground track

The orbit data is extracted from the following two-line orbital elements,

1    45U 60007A   21127.13123066 -.00000076  00000-0  75472-5 0  9991
2    45  66.6948 247.9051 0247857  79.6803 283.2136 14.33718738169101
Epoch (UTC): 07 May 2021 03:08:58
Eccentricity: 0.0247857
inclination: 66.6948°
perigee height: 602 km
apogee height: 957 km
right ascension of ascending node: 247.9051°
argument of perigee: 79.6803°
revolutions per day: 14.33718738
mean anomaly at epoch: 283.2136°
orbit number at epoch: 16910

The dashed part of the orbit path shows where the satellite is in the earth's shadow,  

DLR